Location: Sternwarte Stuttgart
(48.7670°N, 9.1830°E)
Time: 21:45:29
(UTC+02:00)

Cosmos 2279 Rocket - Pass Details

Date: 24 January 2019
Orbit: 963 x 980 km, 82.9° (Epoch: 15 October)

Event Time Altitude Azimuth Distance (km) Brightness Sun altitude
Rises 06:46:18 0° 346° (NNW) 3,670 6.7 -12.6°
Reaches altitude 10° 06:48:55 10° 340° (NNW) 2,717 6.0 -12.2°
Maximum altitude 06:54:46 45° 270° (W) 1,288 4.2 -11.3°
Drops below altitude 10° 07:00:35 10° 200° (SSW) 2,695 6.3 -10.3°
Sets 07:03:10 0° 194° (SSW) 3,637 7.1 -9.9°
